User: anonymous   Login
Location: Unspecified
(0.0000°N, 0.0000°E)
Time: 23:49:31
(UTC+00:00)
Language:

Amsat-Oscar-8 - Orbit

View from above orbital plane
View from above orbital plane
View from above satellite
View from above satellite

Ground track
Ground track

The orbit data is extracted from the following two-line orbital elements,

1 10703U 78026B   17348.91631416 +.00000006 +00000-0 +33646-4 0  9990
2 10703 098.9151 306.3810 0005767 184.6778 243.0987 13.99239700029617
Epoch (UTC): 14 December 2017 21:59:29
Eccentricity: 0.0005767
inclination: 98.9151°
perigee height: 892 km
apogee height: 900 km
right ascension of ascending node: 306.3810°
argument of perigee: 184.6778°
revolutions per day: 13.99239700
mean anomaly at epoch: 243.0987°
orbit number at epoch: 2961

The dashed part of the orbit path shows where the satellite is in the earth's shadow,  

DLR